Weather in Katerinopil

Ukraine / Cherkassi District     48°56′05″N   30°58′51″E
temp.,
°C
wind,
m/s
gust,
m/s
humid.,
%
clouds,
%
prec.,
mm/h
press.,
hPa
HPBL,
m
5 august, thu
thu500:00+21sse355525 0.0 101564
03:00+17nne338482 1.0 101660
06:00+17ssw348931 0.4 101480
09:00+22ssw4672100 0.5 1014353
12:00+27s5653100 0.0 10131264
15:00+29ssw5743100 0.1 10112399
18:00+27sse475397 0.0 1009291
21:00+23ese466136 0.0 100891
6 august, fri
fri600:00+21sse411665 0.0 1008220
03:00+19sse4138172 0.0 1007300
06:00+20sse4993100 0.0 1006298
09:00+25s6106850 0.0 1005739
12:00+30s71045100 0.0 10041772
15:00+25wsw8963100 0.3 1004559
18:00+21wsw91485100 3.3 1005492
21:00+19ssw111992100 7.8 1005508
7 august, sat
sat700:00+18nnw41091100 0.5 1006326
03:00+16nnw489418 0.5 1007234
06:00+16nw410959 0.0 1009332
09:00+19nnw686843 0.0 1010621
12:00+23nnw6740100 0.0 10111058
15:00+25nnw6735100 0.0 10111373
18:00+24nnw45420 0.0 10121416
21:00+19nnw34630 0.0 101352
8 august, sun
sun800:00+18nnw22660 0.0 101412
03:00+17nw22700 0.0 101518
06:00+16nw22780 0.0 101529
09:00+22nnw34580 0.0 1016377
12:00+26nnw45420 0.0 10161476
15:00+29nnw343516 0.0 10161898
18:00+28nnw33381 0.0 10161806
21:00+22n22555 0.0 101711
9 august, mon
mon900:00+20ene22585 0.0 101814
03:00+19sse11614 0.0 101811
06:00+18se11635 0.0 101711
09:00+24sse115038 0.0 1018263
12:00+29wnw22380 0.0 10181161
15:00+31n223237 0.0 10171760
18:00+31nne1139100 0.0 10171084
21:00+25nnw355178 0.0 101864